Location: D�derode
(51.8092°N, 10.1065°E)
Time: 06:18:34
(UTC+00:00)

CRYOSAT 2 - Pass Details

Date: 01 December 2020
Orbit: 715 x 724 km, 92.0° (Epoch: 23 January)

Event Time Altitude Azimuth Distance (km) Brightness Sun altitude
Rises 16:20:40 0° 5° (N) 3,150 7.4 -10.0°
Reaches altitude 10° 16:22:59 10° 8° (N) 2,226 6.6 -10.3°
Maximum altitude 16:27:54 74° 93° (E) 757 4.3 -11.1°
Drops below altitude 10° 16:32:48 10° 179° (S) 2,212 7.2 -11.8°
Sets 16:35:05 0° 181° (S) 3,128 8.0 -12.1°
